Location: Gunung Kajang
(2.4167°N, 113.7167°E)
Time: 22:22:53
(UTC+00:00)

ARIANE 5 R/B - Pass Details

Date: 29 May 2022
Orbit: 319 x 33721 km, 4.0° (Epoch: 24 June)

Event Time Altitude Azimuth Distance (km) Brightness Sun altitude
Rises 19:54:17 0° 266° (W) 20,018 9.2 -33.0°
Enters shadow 20:09:53 - 266° (W) 16,332 8.7 -29.5°
Exits shadow 20:44:13 24° 266° (W) 4,945 6.0 -21.8°
Maximum altitude 20:53:33 88° 180° (S) 1,134 3.3 -19.6°
Drops below altitude 10° 20:57:19 10° 88° (E) 1,932 5.6 -18.8°
Sets 20:58:34 0° 87° (E) 2,521 6.5 -18.5°
